Flag for Russia Weather past 2 weeks in Sochi, Russia

Now
37 °F

Passing clouds.


Feels Like: 37 °F
Forecast: 36 / 46 °F
Wind: No wind

Location: Adler

Current Time: Mar 4, 2015 at 11:55:00 PM

Latest Report: Mar 4, 2015 at 11:00 PM


Visibility: N/A

Pressure: 30.18 "Hg

Humidity: 93%

Dew point: 36 °F

Location of SochiLocation

Historic Weather in Sochi — Graph

°F

Sochi temperature yesterday

Maximum temperature yesterday: 52 °F (at 11:30 AM)
Minimum temperature yesterday: 37 °F (at 5:30 AM)
Average temperature yesterday: 45 °F

Past Weeks' High & Low Weather Summary

 TemperatureHumidityPressure
High63 °F (Feb 24, 12:30 PM)100% (Mar 1, 10:30 AM)30.30 "Hg (Mar 1, 10:30 AM)
Low30 °F (Feb 18, 5:00 AM)25% (Feb 24, 2:00 PM)29.80 "Hg (Feb 28, 3:30 AM)
Average46 °F69%30.05 "Hg
* Reported Feb 17 10:00 PM — Mar 4 10:30 PM, Sochi, Weather by CustomWeather, © 2015

Note: Actual official high and low records may vary slightly from our data, if they occured in-between our weather recording intervals... More about our weather records

Advertising

Sochi weather history for previous 24 hours

 ConditionsComfort  
Time TempWeatherWind HumidityBarometerVisibility
10:30 PM
Wed, Mar 4
37 °FPassing clouds.1 mph87%30.18 "HgN/A
10:00 PM37 °FPassing clouds.3 mph87%30.18 "HgN/A
9:30 PM37 °FPartly cloudy.No wind93%30.18 "HgN/A
9:00 PM37 °FPartly cloudy.3 mph93%30.18 "HgN/A
8:30 PM41 °FMostly cloudy.1 mph81%30.15 "HgN/A
8:00 PM41 °FMostly cloudy.1 mph87%30.15 "HgN/A
7:30 PM43 °FOvercast.No wind76%30.15 "HgN/A
7:00 PM45 °FCloudy.3 mph71%30.15 "HgN/A
6:30 PM45 °FCloudy.3 mph76%30.15 "HgN/A
6:00 PM45 °FSprinkles. More clouds than sun.6 mph76%30.12 "HgN/A
5:30 PM45 °FSprinkles. Overcast.6 mph76%30.12 "HgN/A
5:00 PM45 °FSprinkles. Overcast.6 mph81%30.12 "HgN/A
4:30 PM45 °FSprinkles. More clouds than sun.6 mph76%30.12 "HgN/A
4:00 PM45 °FSprinkles. Overcast.6 mph81%30.09 "HgN/A
3:30 PM45 °FOvercast.3 mph81%30.09 "HgN/A
3:00 PM45 °FOvercast.6 mph81%30.09 "HgN/A
2:30 PM45 °FSprinkles. More clouds than sun.13 mph81%30.07 "HgN/A
2:00 PM45 °FSprinkles. More clouds than sun.8 mph87%30.07 "Hg2 mi
1:30 PM45 °FSprinkles. More clouds than sun.6 mph87%30.07 "Hg5 mi
1:00 PM45 °FSprinkles. More clouds than sun.8 mph87%30.07 "HgN/A
12:30 PM45 °FSprinkles. Overcast.3 mph87%30.07 "HgN/A
12:00 PM45 °FSprinkles. Mostly cloudy.10 mph87%30.07 "Hg4 mi
11:30 AM45 °FSprinkles. Mostly cloudy.6 mph93%30.04 "Hg3 mi
11:00 AM45 °FSprinkles. Mostly cloudy.3 mph87%30.04 "Hg1 mi
10:30 AM45 °FSprinkles. More clouds than sun.8 mph87%30.01 "Hg5 mi
10:00 AM45 °FSprinkles. Overcast.6 mph87%30.01 "Hg6 mi
9:30 AM45 °FSprinkles. Overcast.6 mph81%30.01 "Hg6 mi
9:00 AM43 °FOvercast.8 mph81%30.01 "HgN/A
8:30 AM43 °FOvercast.3 mph81%29.98 "HgN/A
8:00 AM43 °FOvercast.1 mph81%29.98 "HgN/A
7:30 AM43 °FMostly cloudy.1 mph81%29.98 "HgN/A
7:00 AM39 °FPassing clouds.6 mph87%29.95 "HgN/A
6:30 AM41 °FPassing clouds.6 mph81%29.95 "HgN/A
6:00 AM39 °FPassing clouds.3 mph87%29.95 "HgN/A
5:30 AM41 °FPassing clouds.1 mph81%29.95 "HgN/A
5:00 AM39 °FPassing clouds.8 mph87%29.92 "HgN/A
4:30 AM41 °FPassing clouds.10 mph81%29.92 "HgN/A
4:00 AM37 °FPassing clouds.8 mph87%29.95 "HgN/A
3:30 AM39 °FPassing clouds.3 mph87%29.95 "HgN/A
3:00 AM39 °FPassing clouds.No wind87%29.95 "HgN/A
2:30 AM39 °FPassing clouds.No wind87%29.95 "HgN/A
2:00 AM39 °FPassing clouds.3 mph87%29.95 "HgN/A
1:30 AM39 °FPassing clouds.3 mph87%29.95 "HgN/A
1:00 AM39 °FPassing clouds.No wind87%29.95 "HgN/A
12:30 AM41 °FPassing clouds.No wind87%29.95 "HgN/A
12:00 AM41 °FPassing clouds.1 mph81%29.95 "HgN/A
11:30 PM
Tue, Mar 3
41 °FPassing clouds.No wind87%29.95 "HgN/A
Weather by CustomWeather, © 2015

See weather overviewHow to use our weather pages